Wind_Speed
6 7 3 8 11 10 17 6 8 11 10 9 6 6 5 7 6 2 19 3 10 16 7 7 6 4 6 5 5 6 8 9 11 13 14 16 17 18 19 20 21 22 23 24 25 25 25 25 26
12 10 7 11 12 10 14 5 5 9 12 9 9 7 6 5 4 9 10 14 15 15 9 10 10 6 6 7 7 8 9 10 11 13 15 16 18 19 21 23 24 24 25 25 26 27 27 28 29
8 4 7 10 10 10 12 9 12 10 10 9 6 6 5 6 7 7 10 9 19 9 9 11 9 8 8 9 10 10 10 11 12 13 15 16 18 19 21 22 24 25 26 27 27 28 29 29 30
4 5 14 8 21 8 9 7 5 10 11 9 7 7 8 8 9 10 11 15 9 8 10 13 13 12 12 12 12 13 14 15 16 18 19 20 22 23 24 25 26 26 27 28 29 29 30 31 31
4 7 8 10 15 13 10 14 7 9 8 9 9 13 12 11 10 12 13 11 13 13 15 17 16 14 14 16 17 17 18 20 21 21 22 23 23 24 26 28 29 31 31 32 32 32 33 34 34
7 4 4 4 9 18 9 8 13 11 14 16 14 15 15 14 13 15 15 14 13 15 14 15 14 16 17 18 19 20 24 26 28 28 30 30 31 31 31 30 32 32 33 33 34 35 35 35 36
10 12 5 18 22 12 9 9 9 11 10 13 15 16 16 17 15 13 14 16 17 18 13 15 17 17 19 21 25 28 29 29 31 32 32 34 33 32 31 32 33 34 34 35 36 36 36 37 38
17 20 11 18 8 9 11 11 12 13 12 13 13 13 13 16 17 15 15 18 20 18 18 17 18 21 22 25 29 31 32 30 33 34 33 32 33 32 30 31 31 33 34 34 35 35 35 37 39
20 23 9 4 6 10 9 12 13 15 17 17 16 16 17 16 17 17 20 21 19 18 20 21 23 23 27 30 31 32 31 31 30 29 33 33 33 35 35 35 36 36 37 39 39 40 42 41 42
22 12 9 22 17 16 17 18 18 18 18 18 19 19 20 20 20 19 21 23 23 23 23 28 29 30 29 30 31 32 32 32 34 34 34 37 39 41 40 40 41 41 41 43 44 44 44 45 44
6 6 17 17 18 17 16 15 17 18 17 19 20 21 21 23 24 23 23 24 25 25 24 27 31 31 30 28 29 31 31 29 31 36 38 35 40 44 44 47 47 46 46 47 47 48 48 47 47
2 16 3 11 12 15 16 15 14 15 17 18 19 21 23 24 26 26 25 26 27 28 28 28 26 28 27 29 31 31 33 35 37 38 40 40 41 46 49 49 51 52 52 52 52 52 51 50 50
6 19 14 14 12 11 16 15 18 16 20 20 22 23 23 24 24 26 26 26 27 27 27 26 24 27 31 30 33 37 37 39 41 41 43 46 46 47 51 54 54 56 55 53 52 52 52 53 52
15 4 23 15 17 15 15 12 16 17 21 22 27 30 31 25 23 24 25 25 24 26 26 26 24 26 29 33 35 37 39 42 45 46 49 51 52 51 50 49 50 50 49 49 47 48 48 47 47
33 14 21 20 24 24 19 13 18 19 23 26 32 37 32 29 25 26 26 25 25 24 24 27 28 29 31 34 35 39 42 46 50 52 53 54 54 52 51 48 48 49 49 47 46 45 46 45 45
30 27 32 30 38 37 28 22 53 23 12 25 39 27 27 27 25 25 25 25 23 25 26 29 30 33 35 38 40 44 47 49 52 53 52 53 53 53 53 51 50 48 46 46 48 47 47 46 47
30 30 33 33 36 36 36 33 41 29 43 22 19 25 24 25 24 25 25 23 22 26 28 31 33 35 39 43 47 49 51 51 52 53 54 53 50 47 46 46 45 45 46 47 47 45 44 45 45
26 33 38 43 40 35 42 44 44 40 30 26 29 25 31 24 21 21 20 20 22 28 30 32 36 40 44 47 49 50 52 53 52 45 37 33 34 35 37 39 42 43 45 45 46 46 47 47 48
28 33 39 40 37 37 43 43 20 47 29 30 26 32 33 25 16 16 21 24 25 26 31 35 41 43 46 48 50 52 51 42 32 31 32 33 36 37 39 41 42 43 44 45 45 45 45 46 47
31 36 35 32 41 38 35 37 40 39 35 38 35 30 23 31 18 16 22 24 27 30 35 41 44 46 48 49 47 39 30 28 29 31 33 36 36 37 39 40 39 36 32 30 29 29 31 31 35
36 23 22 32 40 38 36 38 39 35 35 24 18 22 12 28 20 15 18 23 25 31 36 40 42 42 44 41 30 28 31 31 32 33 33 35 36 38 37 31 23 20 20 20 18 18 18 19 21
27 19 19 20 20 31 35 38 33 25 9 24 26 28 32 28 26 22 22 27 33 35 35 37 42 40 33 28 28 28 30 28 29 29 33 33 36 34 26 16 16 19 21 20 16 12 11 11 12
25 25 28 28 18 29 35 31 28 33 31 46 34 24 19 26 26 25 33 36 37 37 39 42 40 34 28 31 29 30 29 26 27 31 32 33 35 25 14 12 15 17 20 17 11 8 6 8 6
25 29 32 28 22 27 30 23 36 37 33 20 20 16 25 28 23 30 39 40 39 41 41 40 34 28 32 31 30 30 26 25 28 31 29 30 29 18 11 10 14 16 18 17 13 10 4 3 2
29 31 23 30 25 24 27 33 34 26 21 27 24 21 26 29 27 31 36 37 40 40 39 35 30 32 33 31 30 28 23 24 28 29 27 29 25 16 8 8 12 14 16 16 15 16 9 7 2
27 33 29 32 25 21 30 28 27 28 24 32 26 23 27 29 30 31 36 37 40 41 37 33 33 34 30 29 29 24 21 23 27 28 24 27 25 16 7 5 9 10 16 11 15 19 9 12 10
33 32 29 27 27 26 21 20 24 25 28 28 26 26 33 35 35 33 35 38 39 38 32 32 34 32 27 27 27 21 20 22 25 26 23 24 23 13 6 5 9 10 16 12 12 12 14 13 16
27 22 25 21 27 16 13 16 17 22 24 26 29 33 35 36 35 34 36 37 35 34 29 30 32 28 28 26 23 18 18 20 23 25 23 21 23 14 8 8 10 10 14 9 13 12 12 12 11
13 16 20 21 19 17 17 20 19 30 20 23 30 32 33 35 35 35 36 38 36 34 31 30 29 28 27 25 19 15 16 18 20 22 23 20 21 19 9 8 9 9 11 9 8 10 11 11 11
17 21 15 16 17 17 20 17 9 19 23 24 28 31 32 32 30 32 33 33 34 33 30 29 28 27 27 22 16 12 15 17 17 20 20 21 20 20 20 16 10 8 8 9 8 8 8 11 13
Wind_Direction
225 241 248 286 283 310 89 27 30 5 23 48 27 31 61 332 351 180 146 303 8 44 8 348 322 306 296 276 248 242 241 237 238 240 241 243 247 252 253 253 254 255 256 258 258 260 260 260 260
219 239 250 273 294 289 47 358 346 354 32 34 29 16 351 349 319 274 295 262 266 325 337 324 316 314 280 274 274 268 267 262 256 254 252 254 254 254 256 258 258 257 257 257 259 259 260 261 262
226 278 276 268 240 123 50 20 31 37 54 44 35 355 338 337 311 301 282 259 306 300 313 311 305 291 275 270 272 274 267 264 263 264 265 262 260 258 257 259 261 261 259 258 257 257 257 258 259
231 235 264 83 97 83 135 52 21 6 13 352 346 325 304 299 295 287 280 285 295 302 318 306 298 280 271 270 272 270 275 277 272 265 260 259 261 263 263 261 260 259 261 262 261 259 257 258 257
281 282 320 105 119 135 73 14 340 358 351 317 314 304 301 307 295 284 297 289 291 312 317 306 293 294 289 287 285 283 283 279 278 277 275 271 270 269 266 264 263 261 260 260 260 261 262 261 258
227 199 170 192 167 97 19 345 335 337 318 306 303 295 294 297 285 277 286 294 305 304 299 313 303 293 292 290 289 291 290 287 286 284 283 280 277 275 274 271 268 266 265 261 260 259 258 258 260
261 337 184 88 45 59 20 1 350 352 341 306 308 300 298 295 295 280 282 295 304 302 304 312 300 294 287 284 282 284 284 283 282 283 284 283 281 279 278 272 272 270 267 271 270 267 265 264 262
3 344 325 358 6 359 351 343 347 346 340 338 341 330 308 299 296 297 295 296 298 298 297 298 293 289 291 288 284 283 283 282 284 284 283 282 282 280 276 279 276 275 273 272 271 270 268 269 265
345 347 305 78 45 31 15 355 352 341 343 342 338 332 329 327 322 317 298 295 302 293 300 295 287 290 294 292 291 290 285 277 283 289 285 283 281 278 279 280 280 278 276 274 271 270 270 271 269
30 6 340 354 20 23 17 0 349 342 340 336 332 328 324 324 323 319 309 304 304 301 300 300 299 302 302 298 293 292 292 285 286 290 288 291 289 282 280 278 277 276 276 273 271 270 271 271 269
67 30 353 357 1 2 2 348 337 334 330 324 319 315 313 313 315 317 311 306 302 301 295 295 302 303 301 298 295 298 295 291 287 288 288 289 289 285 284 282 278 275 274 272 271 271 269 267 268
194 18 353 325 323 333 334 337 330 318 321 319 318 315 314 309 306 305 306 308 307 305 302 304 303 297 298 300 299 298 297 295 291 288 288 287 286 286 286 283 282 279 277 276 274 272 268 265 265
10 316 345 288 304 318 311 321 320 322 324 327 327 326 317 307 303 302 302 303 301 301 306 304 304 300 303 302 302 301 301 298 297 295 292 288 285 283 283 284 282 280 277 274 272 270 270 269 266
2 47 5 326 296 290 284 300 310 316 315 324 325 321 321 311 303 301 300 300 301 304 301 300 300 300 300 300 300 300 299 298 296 296 294 292 290 289 287 284 283 282 280 278 274 269 265 263 263
3 330 337 336 338 299 292 307 305 296 303 308 323 319 313 308 308 304 306 305 306 301 301 299 303 304 304 302 300 300 299 299 299 298 297 296 294 292 289 286 284 284 282 278 274 271 269 265 262
348 344 338 340 336 353 285 287 342 261 287 293 318 304 305 300 306 305 307 306 307 305 309 310 310 310 307 304 303 302 301 301 300 299 298 296 293 290 286 284 283 282 279 275 273 273 272 269 266
335 328 324 327 329 331 331 316 311 286 288 296 306 314 305 303 310 309 314 314 311 310 316 315 309 308 308 307 306 305 303 302 301 300 299 297 294 290 288 287 284 281 278 277 276 273 269 268 266
315 319 326 328 322 329 321 320 305 313 304 307 336 314 316 313 319 316 316 310 306 311 312 312 310 310 309 309 307 305 306 306 307 307 306 306 304 302 299 294 290 287 284 280 277 274 271 267 264
310 313 315 315 327 323 325 322 184 352 349 321 334 335 319 300 311 328 319 316 318 316 314 312 310 310 311 310 312 311 311 314 316 314 313 312 308 304 302 298 295 291 285 281 277 274 270 268 265
276 287 299 313 318 339 340 328 323 323 326 322 308 304 320 18 19 347 330 317 319 321 318 316 315 316 315 314 315 317 319 320 319 318 318 314 314 314 310 306 302 299 296 292 283 276 272 269 265
295 295 301 342 334 329 323 318 323 323 327 311 335 315 307 14 5 343 333 322 317 320 321 319 316 320 322 324 328 329 329 328 326 323 322 323 321 316 316 316 316 315 310 305 298 291 279 273 268
320 327 328 322 333 307 305 311 322 344 303 351 355 357 337 344 352 345 325 332 333 331 325 324 329 332 335 334 332 331 328 329 328 329 329 327 324 324 327 331 333 341 331 325 314 307 305 289 278
281 309 308 314 304 303 298 305 332 335 316 319 336 349 344 340 337 338 342 339 336 332 332 336 334 338 338 335 335 334 332 335 335 334 334 331 333 331 335 334 340 346 354 353 345 317 300 293 289
320 305 317 312 280 291 305 311 329 325 330 337 353 345 344 350 333 344 339 338 338 340 335 340 340 340 339 337 336 336 337 341 340 340 339 338 338 336 326 333 353 350 1 14 25 31 13 13 352
322 333 326 336 326 314 312 321 318 333 345 357 2 359 346 348 354 333 336 339 338 341 341 348 343 338 338 335 338 337 341 344 344 345 345 345 345 336 322 326 356 3 11 29 41 28 35 57 59
327 327 330 339 334 324 315 326 342 342 325 335 351 345 351 345 344 341 344 337 343 344 348 341 336 334 336 336 337 338 343 344 348 350 350 353 353 347 330 335 7 19 23 35 57 48 71 66 79
329 336 330 328 331 319 335 329 304 318 332 344 350 351 343 343 344 342 341 343 342 341 335 332 338 337 337 336 338 338 344 346 352 354 358 3 6 6 20 12 18 30 25 43 57 55 63 84 63
324 315 317 323 330 332 338 325 321 334 354 340 341 341 338 333 337 338 341 341 335 333 333 332 340 340 335 335 337 339 346 351 352 1 6 11 20 27 35 32 29 40 26 46 60 54 57 60 73
304 303 317 321 334 325 317 311 321 322 333 334 330 329 330 329 334 334 336 335 334 334 333 333 339 337 334 333 338 341 349 355 358 5 12 22 31 36 34 31 31 24 32 43 58 44 57 66 86
342 344 344 329 323 311 316 322 301 329 324 329 327 324 326 327 326 324 327 334 332 334 332 333 338 337 337 334 338 344 353 352 2 9 12 29 39 44 48 47 40 36 44 60 56 57 65 86 99
Height
5893 5893 5895 5894 5897 5889 5885 5891 5890 5893 5896 5896 5892 5892 5895 5893 5892 5890 5884 5886 5881 5880 5886 5887 5888 5889 5890 5891 5891 5892 5892 5893 5893 5893 5893 5893 5892 5891 5891 5891 5891 5890 5890 5891 5891 5890 5891 5891 5891
5892 5893 5898 5897 5897 5894 5891 5892 5890 5890 5895 5893 5892 5892 5894 5894 5892 5889 5891 5889 5885 5882 5885 5887 5888 5889 5889 5890 5890 5890 5890 5890 5890 5890 5890 5889 5889 5888 5888 5887 5887 5886 5886 5886 5886 5887 5887 5887 5887
5895 5895 5895 5893 5894 5894 5892 5890 5891 5893 5895 5895 5895 5893 5893 5893 5891 5891 5889 5890 5888 5888 5887 5888 5888 5888 5888 5889 5889 5888 5888 5889 5888 5887 5886 5885 5885 5885 5884 5883 5883 5881 5881 5881 5881 5881 5882 5881 5881
5897 5897 5895 5891 5893 5891 5891 5895 5895 5895 5893 5893 5893 5892 5892 5892 5891 5889 5889 5889 5887 5888 5886 5885 5886 5887 5887 5887 5887 5887 5886 5885 5885 5884 5884 5883 5882 5882 5880 5879 5878 5877 5876 5876 5876 5875 5876 5876 5875
5899 5895 5895 5893 5889 5892 5889 5894 5898 5898 5896 5895 5893 5892 5891 5890 5890 5890 5887 5887 5886 5886 5885 5884 5883 5883 5884 5883 5882 5882 5882 5881 5880 5880 5879 5878 5877 5877 5876 5875 5873 5872 5871 5870 5870 5869 5869 5870 5869
5899 5894 5893 5891 5870 5889 5892 5896 5893 5895 5895 5894 5892 5891 5891 5889 5888 5888 5886 5885 5884 5884 5883 5883 5882 5882 5881 5880 5879 5877 5876 5876 5874 5873 5872 5871 5870 5869 5868 5868 5866 5865 5863 5863 5862 5863 5863 5863 5863
5902 5900 5896 5884 5887 5891 5895 5895 5894 5894 5895 5891 5890 5889 5888 5887 5887 5886 5884 5882 5881 5880 5880 5879 5878 5878 5877 5876 5875 5873 5872 5870 5868 5866 5865 5863 5862 5861 5860 5859 5858 5857 5857 5856 5855 5855 5854 5854 5855
5900 5901 5898 5896 5895 5894 5895 5894 5894 5893 5893 5891 5888 5886 5886 5884 5883 5883 5882 5880 5878 5877 5876 5875 5874 5873 5871 5870 5868 5867 5865 5863 5862 5860 5858 5856 5855 5854 5854 5853 5851 5851 5850 5850 5848 5846 5846 5846 5846
5901 5897 5897 5898 5899 5896 5896 5894 5892 5890 5889 5888 5887 5885 5883 5882 5881 5880 5877 5876 5874 5874 5872 5870 5869 5869 5867 5863 5861 5859 5857 5855 5854 5853 5851 5850 5848 5847 5846 5845 5844 5843 5842 5841 5840 5839 5837 5837 5836
5901 5900 5896 5894 5893 5897 5895 5893 5892 5891 5888 5887 5885 5883 5881 5878 5877 5876 5873 5872 5870 5868 5866 5862 5861 5860 5859 5856 5853 5851 5850 5848 5846 5845 5843 5840 5838 5836 5836 5837 5835 5833 5831 5830 5830 5829 5828 5827 5827
5903 5902 5900 5897 5892 5897 5897 5896 5892 5890 5889 5887 5884 5882 5879 5876 5873 5871 5870 5867 5865 5864 5864 5860 5855 5853 5851 5849 5847 5845 5843 5842 5841 5838 5836 5836 5829 5826 5824 5821 5821 5821 5820 5819 5818 5817 5817 5816 5815
5901 5903 5905 5903 5901 5897 5896 5895 5894 5890 5888 5886 5882 5880 5876 5874 5871 5868 5865 5862 5860 5857 5855 5853 5852 5847 5845 5843 5841 5839 5837 5834 5832 5830 5827 5824 5822 5816 5811 5810 5807 5806 5806 5805 5804 5802 5802 5802 5802
5903 5903 5902 5900 5898 5899 5895 5894 5891 5888 5887 5884 5880 5876 5872 5868 5866 5863 5860 5857 5855 5852 5851 5849 5847 5842 5840 5838 5835 5831 5828 5825 5821 5819 5816 5812 5809 5807 5802 5796 5793 5791 5791 5791 5789 5787 5786 5786 5786
5903 5904 5899 5895 5896 5896 5893 5893 5890 5888 5886 5882 5879 5875 5869 5865 5860 5858 5855 5854 5851 5848 5845 5844 5842 5840 5836 5832 5828 5824 5819 5816 5811 5808 5802 5798 5795 5792 5789 5785 5779 5776 5776 5774 5772 5771 5772 5773 5772
5904 5905 5901 5900 5896 5896 5893 5892 5888 5885 5882 5879 5875 5869 5864 5861 5856 5853 5851 5848 5845 5843 5840 5836 5835 5832 5829 5825 5821 5817 5811 5806 5800 5795 5789 5783 5780 5775 5771 5769 5766 5762 5760 5759 5757 5757 5757 5758 5758
5905 5904 5902 5901 5898 5891 5891 5885 5884 5876 5870 5871 5868 5864 5861 5857 5852 5848 5846 5842 5839 5837 5835 5832 5828 5824 5820 5816 5811 5806 5801 5795 5789 5782 5776 5771 5767 5762 5758 5755 5751 5749 5747 5744 5743 5742 5743 5743 5743
5899 5900 5900 5897 5895 5889 5887 5884 5875 5872 5865 5862 5859 5858 5855 5850 5847 5842 5841 5839 5836 5833 5830 5826 5823 5818 5813 5807 5802 5795 5789 5783 5777 5770 5764 5757 5752 5748 5743 5740 5737 5734 5732 5730 5728 5728 5728 5727 5728
5898 5897 5895 5892 5891 5886 5877 5876 5863 5861 5850 5850 5851 5848 5846 5844 5842 5838 5836 5835 5833 5831 5827 5822 5817 5810 5804 5797 5791 5784 5777 5771 5763 5756 5751 5746 5742 5737 5732 5728 5724 5721 5718 5715 5713 5712 5711 5712 5712
5897 5894 5893 5890 5884 5883 5875 5863 5837 5850 5846 5835 5845 5841 5839 5835 5838 5836 5833 5832 5829 5827 5821 5816 5810 5803 5795 5787 5780 5774 5765 5758 5752 5748 5743 5738 5733 5727 5722 5717 5712 5708 5704 5700 5698 5697 5695 5695 5696
5902 5895 5890 5888 5880 5879 5872 5860 5854 5850 5850 5848 5840 5839 5835 5830 5832 5833 5830 5828 5824 5821 5815 5806 5799 5793 5787 5779 5771 5763 5757 5752 5747 5742 5736 5730 5724 5718 5712 5706 5700 5694 5689 5685 5683 5681 5681 5681 5681
5896 5886 5888 5883 5873 5870 5865 5861 5858 5852 5847 5845 5840 5835 5830 5829 5830 5830 5828 5825 5822 5817 5810 5802 5793 5787 5778 5770 5763 5757 5751 5745 5740 5735 5729 5723 5717 5710 5703 5697 5691 5687 5682 5678 5676 5674 5673 5672 5673
5891 5880 5880 5885 5881 5869 5864 5860 5856 5853 5850 5835 5839 5836 5831 5827 5828 5828 5826 5820 5814 5809 5805 5796 5787 5778 5770 5764 5759 5753 5748 5742 5737 5731 5724 5718 5710 5703 5696 5691 5688 5684 5679 5674 5671 5670 5668 5668 5667
5883 5883 5881 5880 5873 5866 5858 5857 5853 5852 5847 5839 5839 5836 5832 5830 5826 5821 5817 5813 5808 5802 5795 5785 5779 5771 5766 5761 5755 5750 5744 5738 5733 5727 5720 5712 5704 5697 5693 5690 5687 5683 5678 5672 5669 5667 5666 5665 5665
5882 5880 5874 5873 5867 5861 5856 5852 5850 5844 5839 5838 5837 5832 5830 5827 5820 5814 5809 5805 5800 5793 5787 5781 5773 5768 5763 5757 5752 5747 5741 5736 5730 5723 5716 5709 5701 5695 5691 5689 5687 5683 5678 5673 5669 5666 5665 5664 5664
5877 5871 5867 5865 5861 5856 5851 5849 5845 5843 5839 5836 5834 5831 5828 5823 5819 5817 5811 5803 5796 5789 5779 5773 5770 5767 5761 5755 5750 5744 5739 5734 5728 5721 5714 5707 5699 5693 5690 5688 5686 5683 5679 5675 5672 5668 5667 5666 5665
5870 5868 5865 5859 5857 5855 5850 5847 5843 5839 5838 5835 5831 5827 5824 5822 5817 5812 5805 5797 5790 5782 5774 5773 5770 5764 5758 5753 5748 5742 5737 5733 5727 5720 5714 5707 5698 5692 5689 5688 5686 5684 5681 5678 5675 5671 5670 5669 5669
5869 5867 5863 5860 5857 5852 5848 5843 5841 5838 5833 5829 5826 5824 5820 5814 5810 5808 5802 5795 5787 5781 5778 5773 5767 5761 5755 5750 5745 5740 5736 5732 5727 5721 5713 5707 5699 5692 5689 5689 5687 5685 5683 5680 5679 5676 5675 5674 5673
5867 5864 5858 5857 5852 5847 5844 5840 5836 5834 5831 5827 5821 5818 5816 5812 5808 5803 5798 5793 5788 5782 5776 5770 5764 5758 5752 5747 5743 5739 5736 5731 5727 5721 5714 5708 5700 5694 5692 5690 5688 5687 5686 5684 5682 5680 5678 5677 5675
5865 5862 5856 5852 5849 5845 5842 5840 5836 5833 5830 5825 5820 5817 5813 5808 5803 5799 5795 5790 5783 5778 5773 5767 5761 5756 5750 5745 5741 5738 5735 5731 5727 5722 5716 5710 5703 5698 5694 5692 5690 5688 5687 5686 5684 5683 5681 5680 5679
5859 5855 5853 5849 5846 5843 5840 5838 5834 5832 5827 5824 5820 5814 5811 5808 5803 5798 5794 5789 5780 5775 5769 5764 5758 5753 5748 5743 5739 5737 5734 5730 5726 5722 5718 5712 5707 5702 5698 5694 5692 5691 5689 5688 5686 5685 5685 5684 5683